Change the Weather History Date:

Wednesday, November 21, 2012

  Actual Average Record
Temperature  
Mean Temperature 58 °F -  
Max Temperature 61 °F 71 °F - ()
Min Temperature 55 °F 56 °F - ()
Degree Days  
Heating Degree Days 7    
Growing Degree Days 8 (Base 50)    
Moisture  
Dew Point 51 °F    
Average Humidity 77    
Maximum Humidity 94    
Minimum Humidity 51    
Precipitation  
Precipitation 0.08 in - - ()
Sea Level Pressure  
Sea Level Pressure 30.16 in    
Wind  
Wind Speed 6 mph ()    
Max Wind Speed 14 mph    
Max Gust Speed -    
Visibility 7.2 miles    
Events Rain    
T = Trace of Precipitation, MM = Missing Value Source: Averaged Metar Reports

Daily Weather History Graph

Daily Weather History Graph

Search for Another Location

Airport or City:

Trip Planner

Search our weather history database for the weather conditions in past years. The results will help you decide how hot, cold, wet, or windy it might be!

Date:

Astronomy

Nov. 21, 2012 Rise Set
Actual Time 5:15 AM SAST 7:18 PM SAST
Civil Twilight 4:47 AM SAST 7:46 PM SAST
Nautical Twilight 4:13 AM SAST 8:20 PM SAST
Astronomical Twilight 3:36 AM SAST 8:56 PM SAST
Moon 12:57 PM SAST (11/21) 12:57 AM SAST (11/21)
Length of Visible Light 14h 59m
Length of Day
14h 03m
First Quarter, 58% of the Moon is Illuminated
Nov 21
First Quarter
Nov 28
Full
Dec 6
Last Quarter
Dec 13
New
Dec 20
First Quarter

Hourly Weather History & Observations

Time (SAST) Temp. Dew Point Humidity Pressure Visibility Wind Dir Wind Speed Gust Speed Precip Events Conditions
12:00 AM 59.0 °F 55.4 °F 88% 30.12 in - WNW 8.1 mph - N/A Rain Light Rain
1:00 AM 57.2 °F 55.4 °F 94% 30.12 in - WNW 6.9 mph - N/A Rain Light Rain
2:00 AM 57 °F 55 °F 92% 30.12 in 6 mi West 9.2 mph - -  
2:00 AM 57.2 °F 55.4 °F 94% 30.09 in 6.2 mi West 8.1 mph - N/A   Light Drizzle
3:00 AM 57.2 °F 55.4 °F 94% 30.12 in 3.7 mi NW 6.9 mph - N/A   Overcast
4:00 AM 57.2 °F 53.6 °F 88% 30.12 in 5.0 mi WNW 11.5 mph - N/A Rain Light Rain
5:00 AM 56 °F 52 °F 83% 30.14 in 12 mi WNW 5.8 mph - - Rain Light Rain
5:00 AM 55.4 °F 53.6 °F 94% 30.12 in 6.2 mi WNW 5.8 mph - N/A   Mostly Cloudy
6:00 AM 55.4 °F 51.8 °F 88% 30.15 in 6.2 mi NNW 9.2 mph - N/A   Mostly Cloudy
7:00 AM 57.2 °F 51.8 °F 82% 30.15 in 3.7 mi West 13.8 mph - N/A   Overcast
8:00 AM 57 °F 54 °F 84% 30.20 in 12 mi WNW 10.4 mph - -   Mostly Cloudy
8:00 AM 57.2 °F 53.6 °F 88% 30.18 in 3.7 mi WNW 10.4 mph - N/A   Mostly Cloudy
9:00 AM 57.2 °F 53.6 °F 88% 30.18 in 6.2 mi WNW 5.8 mph - N/A   Mostly Cloudy
10:00 AM 55.4 °F 53.6 °F 94% 30.21 in 2.8 mi South 8.1 mph - N/A Rain Light Rain
11:00 AM 58 °F 51 °F 71% 30.22 in 12 mi 2.3 mph - - Rain Light Rain
11:00 AM 59.0 °F 51.8 °F 77% 30.21 in 6.2 mi Variable 2.3 mph - N/A   Mostly Cloudy
12:00 PM 60.8 °F 51.8 °F 72% 30.21 in 6.2 mi West 5.8 mph - N/A   Mostly Cloudy
1:00 PM 60.8 °F 50.0 °F 68% 30.18 in 6.2 mi Variable 2.3 mph - N/A   Mostly Cloudy
2:00 PM 61 °F 49 °F 55% 30.19 in 12 mi South 4.6 mph - -   Partly Cloudy
2:00 PM 60.8 °F 48.2 °F 63% 30.18 in 6.2 mi South 5.8 mph - N/A   Mostly Cloudy
3:00 PM 60.8 °F 48.2 °F 63% 30.18 in 6.2 mi South 6.9 mph - N/A   Mostly Cloudy
4:00 PM 60.8 °F 48.2 °F 63% 30.15 in 6.2 mi South 5.8 mph - N/A   Mostly Cloudy
5:00 PM 61 °F 48 °F 51% 30.17 in 19 mi SE 5.8 mph - -   Mostly Cloudy
5:00 PM 60.8 °F 48.2 °F 63% 30.15 in 6.2 mi South 6.9 mph - N/A   Mostly Cloudy
6:00 PM 60.8 °F 46.4 °F 59% 30.15 in 6.2 mi South 6.9 mph - N/A   Mostly Cloudy
7:00 PM 59.0 °F 48.2 °F 67% 30.18 in 6.2 mi SE 4.6 mph - N/A   Mostly Cloudy
8:00 PM 58 °F 48 °F 62% 30.19 in 12 mi SE 3.5 mph - -   Mostly Cloudy
8:00 PM 59.0 °F 48.2 °F 67% 30.18 in 6.2 mi SE 3.5 mph - N/A   Mostly Cloudy
9:00 PM 59.0 °F 48.2 °F 67% 30.18 in 6.2 mi SE 2.3 mph - N/A   Overcast
10:00 PM 57.2 °F 50.0 °F 77% 30.18 in 6.2 mi ENE 3.5 mph - N/A   Overcast
11:00 PM 57.2 °F 50.0 °F 77% 30.18 in 6.2 mi Variable 1.2 mph - N/A   Overcast